Regional Weather Roundup
Issued by NWS Green Bay, WI

Home | Current Version | Previous Version | Text Only | Print | Product List | Glossary On
Versions: 1 2 3 4 5 6 7 8 9 10 11 12 13 14 15 16 17 18 19 20 21 22 23 24 25 26 27 28 29 30 31 32 33 34 35 36 37 38 39 40 41 42 43 44 45 46 47 48 49 50
077
ASUS43 KGRB 281800
RWRGRB

NORTH-CENTRAL AND NORTHEAST WISCONSIN REGIONAL WEATHER ROUNDUP
NATIONAL WEATHER SERVICE GREEN BAY WI
100 PM CDT WED SEP 28 2016

WIZ005-009-010>012-018-019-281900-
NORTH CENTRAL WISCONSIN

CITY           SKY/WX    TMP DP  RH WIND       PRES   REMARKS
IRONWOOD       LGT RAIN  55  54  96 NE12G17   30.18R FOG
MANITOWISH WTR NOT AVBL
ARBOR VITAE    NOT AVBL
EAGLE RIVER    NOT AVBL
LAND O LAKES   NOT AVBL
RHINELANDER    PTSUNNY   61  49  64 N9        30.12R
PHILLIPS       NOT AVBL
ANTIGO         NOT AVBL
TOMAHAWK       NOT AVBL
MERRILL        NOT AVBL
$$

WIZ013-073-281900-
NORTHEAST WISCONSIN

CITY           SKY/WX    TMP DP  RH WIND       PRES   REMARKS
IRON MOUNTAIN  PTSUNNY   60  46  59 NE8       30.09R
MARINETTE      NOT AVBL
$$

WIZ017-030-035>037-045-281900-
CENTRAL WISCONSIN

CITY           SKY/WX    TMP DP  RH WIND       PRES   REMARKS
MEDFORD        NOT AVBL
WAUSAU         PTSUNNY   61  48  62 N13       30.07R
MOSINEE        NOT AVBL
MARSHFIELD     PTSUNNY   60  48  64 NE13      30.07R
WISC RAPIDS    CLOUDY    60  50  69 NE14G21   30.07R
STEVENS POINT  NOT AVBL
WAUPACA        NOT AVBL
SHAWANO        NOT AVBL
CLINTONVILLE   NOT AVBL
WAUTOMA        PTSUNNY   63  49  60 N16       30.03R
$$

WIZ038-039-048-051-281900-
FOX VALLEY

CITY           SKY/WX    TMP DP  RH WIND       PRES   REMARKS
NWS GREEN BAY  CLOUDY    58  55  90 NE16G25   30.03R
APPLETON       PTSUNNY   55  54  94 E12       30.02R
OSHKOSH        CLOUDY    59  50  72 NE12      30.01R
FOND DU LAC    CLOUDY    58  50  75 NE14      30.01R
$$

WIZ022-050-052-281900-
EAST CENTRAL WISCONSIN

CITY           SKY/WX    TMP DP  RH WIND       PRES   REMARKS
EPHRAIM        NOT AVBL
WASHINGTON ISL NOT AVBL
STURGEON BAY   PTSUNNY   60  50  69 E10       30.05R
MANITOWOC      NOT AVBL
SHEBOYGAN      PTSUNNY   60  51  72 E15       30.00R
$$

LMZ563-521-522-541>543-281900-
LAKESHORE

STATION/POSITION TIME  TEMP    WIND        PRES    VSBY  WAVE
                       AIR SEA DIR/SP/G                  HT/PER
                 (UTC) (F)     (DEG/KT/KT) (MB)    (MI)  (FT/S)
SHEBOYGAN LKSHOR 1700   56      50/ 13/ 13 1014.8R
KEWAUNEE LKSHORE 1700   57      40/  8/ 12 1015.4R
NORTHPORT PIER   1700   61      60/ 15/ 18 1017.3R
N MID LAKE BUOY  1650   59 66   70/ 14/ 17 1016.6R         3/ 4
SISTER BAY LKSHO 1708   66      80/ 10/ 20   N/A
CHAMBERS ISLAND  1700   59      20/ 20/ 22 1016.6R
MENOMINEE LKSHOR 1700   59      40/ 22/ 24 1016.2R
$$




USA.gov is the U.S. government's official web portal to all federal, state and local government web resources and services.